CAPE
0 0 0 0 0 0 0 0 0 0 6 1 0 0 0 0 1542 2012 1748 1691 1905 2172 1994 2025 2785 2950 2796 2291 2199 2053 1727 1436 1531 1669 1684 1653 1745 1864 2038 1940 1786 1553 1207 662 376 280 275 261 287
0 0 0 0 0 0 0 0 0 0 5 0 0 0 0 1036 2193 1763 1395 1920 1902 2303 1848 1933 2798 2855 2781 2364 2170 1941 1696 1542 1621 1649 1695 1706 1824 1911 1970 2048 1771 1432 832 347 287 274 286 256 229
0 0 0 0 0 0 0 0 14 25 9 0 0 0 0 1332 1623 2555 1496 2342 1908 2182 2129 2415 2743 2706 2674 2389 2073 1889 1772 1640 1674 1704 1702 1743 1836 1960 1978 2021 1744 1231 452 237 278 403 406 370 339
0 0 0 0 0 0 0 0 0 17 1 0 0 0 0 468 1336 2706 1702 2224 2170 1984 2156 2297 2549 2579 2555 2322 2026 1840 1793 1794 1710 1733 1740 1807 1840 1855 1900 1892 1562 969 450 226 324 408 432 514 519
0 0 0 0 0 0 0 0 0 1 1 0 0 0 27 1521 1777 2375 1572 1991 1941 1541 2650 2086 2492 2500 2493 2362 2094 1905 1853 1735 1687 1742 1770 1853 1786 1662 1725 1651 1308 805 537 504 510 578 512 323 217
0 0 0 0 0 0 0 0 0 0 0 0 0 0 55 2175 1803 1845 1428 1680 1371 1612 2249 1735 2340 2355 2254 2228 2072 1888 1765 1664 1662 1696 1761 1793 1660 1606 1637 1475 1275 868 531 562 680 720 568 420 276
0 0 0 0 0 0 0 0 0 0 0 0 0 0 1436 1890 1662 1347 1480 1365 900 1694 1675 1318 1553 2131 2221 2080 1997 1851 1687 1661 1657 1592 1621 1656 1568 1556 1532 1422 1308 1021 611 555 712 782 663 518 391
0 0 0 0 0 0 0 0 0 0 0 0 0 0 35 1982 1001 35 386 1409 980 1251 1147 917 1312 1540 1810 1857 2001 1884 1807 1735 1568 1548 1571 1493 1496 1479 1427 1204 1215 1078 766 557 588 708 701 622 545
0 0 0 0 0 0 0 0 0 0 0 0 0 0 0 743 45 164 9 73 1138 1022 1139 669 760 1171 922 1125 1618 1768 1779 1708 1555 1562 1527 1189 628 847 778 470 880 1099 840 601 509 456 395 367 343
0 0 0 0 0 0 0 0 0 0 0 0 0 0 0 2 0 0 0 982 1341 1056 1083 698 795 611 376 361 1240 1195 1212 1211 1137 916 1118 568 247 422 222 348 1103 1129 984 789 630 555 469 282 0
0 0 0 0 0 0 0 0 0 0 0 0 0 0 0 0 11 629 962 1338 1274 1282 1275 693 986 783 350 352 725 537 559 445 430 436 789 507 157 647 175 687 336 622 925 395 499 364 124 20 10
0 0 0 0 0 0 0 0 0 0 0 0 0 0 0 0 15 195 822 1011 1135 865 862 539 942 982 843 971 372 438 435 488 490 649 1106 421 1126 1708 331 484 364 534 422 264 194 157 204 106 55
0 0 0 0 0 0 0 0 0 0 0 0 0 0 0 0 0 0 269 2007 752 764 130 0 355 1023 871 998 925 547 623 588 757 888 1386 983 1063 1500 1196 1305 482 732 366 486 464 373 887 693 298
0 0 0 0 0 0 0 0 0 0 0 0 0 0 0 0 0 0 0 877 985 16 3 0 8 543 1787 2046 1434 1135 1209 850 1176 1139 1371 1870 1772 2376 1720 2498 2443 1881 1810 1289 719 780 1308 1184 935
0 0 0 0 0 0 0 0 0 0 0 0 0 0 0 0 0 0 0 125 1253 23 23 0 4 314 1023 2304 2629 1805 2200 1233 1562 1557 1867 1674 2357 2860 2585 2479 1827 1860 1873 2183 2203 2302 2132 1965 1390
0 0 0 0 0 0 0 0 0 0 0 0 0 0 0 0 0 0 0 90 863 201 0 0 0 0 272 1820 2061 2135 1479 1522 426 149 640 2381 2472 2725 3116 2769 2780 2550 2460 2025 1886 1951 1749 2022 1011
0 0 0 0 0 0 0 0 0 0 0 0 0 0 0 0 0 0 0 6 62 794 580 214 0 0 0 302 161 1328 2142 960 52 14 0 38 1954 1525 1041 1248 1843 2401 2032 2336 1633 1393 2216 1850 1434
0 0 0 0 0 0 0 0 0 0 0 0 0 0 0 0 0 0 0 24 191 628 1068 257 189 525 69 0 0 910 2709 2328 16 0 11 572 397 18 0 488 483 897 865 658 1145 2194 1976 1624 1367
0 0 0 0 0 0 0 0 0 0 0 0 0 0 0 0 0 0 15 66 767 1329 1755 2443 2046 2244 833 1545 1415 2062 2427 2425 1105 0 0 83 753 1025 394 0 59 1746 2204 1936 1312 1309 458 297 186
0 0 0 0 0 0 0 0 0 0 0 0 0 0 0 0 0 0 21 427 587 1243 2357 2717 3127 3085 3338 2257 2738 2309 1867 2184 2242 2228 2180 1939 1163 2169 2582 3074 2276 2428 819 949 540 741 480 196 162
0 0 0 0 0 1 1 0 0 0 0 0 0 0 0 0 0 0 115 333 638 1074 1999 2310 3444 3359 3195 3394 2489 2911 3200 2520 2539 2682 2602 2376 2183 2295 1082 1127 584 378 311 177 648 848 539 201 134
0 0 0 0 0 2 1 0 30 0 0 0 0 0 0 0 0 0 116 328 351 1328 1024 1284 1979 3525 3421 3444 3418 3021 2346 1985 1616 950 1515 967 401 268 351 231 186 267 655 730 424 168 642 326 10
0 3 0 1 7 7 0 0 0 19 1 0 0 0 0 12 0 1 3 284 518 1154 1306 1598 3202 3395 3844 3839 3557 2521 2786 1778 737 925 934 1306 666 348 219 204 332 401 525 595 614 458 531 587 310
0 2 10 4 4 3 0 0 3 76 25 4 0 0 0 1 41 52 276 526 415 551 884 1971 2554 1829 1350 1426 2461 1553 1106 1356 950 1277 825 670 910 889 539 249 461 385 572 443 432 480 473 600 364
4 40 29 29 26 1 1 3 34 42 1 4 4 0 1 54 180 204 275 292 716 788 1943 1678 1170 1174 833 705 584 550 502 394 619 342 447 351 214 258 654 222 238 169 208 203 118 56 50 29 34
10 42 19 29 17 15 0 1 67 81 21 3 0 11 25 64 233 290 265 412 1039 1339 1032 706 569 496 372 336 375 431 561 208 283 153 109 70 33 43 143 102 73 80 52 32 2 0 0 0 0
8 15 6 46 92 5 26 64 77 28 18 0 24 69 135 172 379 510 589 822 989 861 647 561 427 412 375 396 490 442 175 270 139 129 76 84 197 9 2 0 1 0 0 0 0 0 0 1 5
22 11 74 29 100 37 76 131 60 129 95 20 76 146 253 365 519 551 478 610 513 432 444 389 351 263 239 279 295 205 99 16 9 33 70 32 45 26 4 0 0 0 0 0 0 0 4 13 15
0 0 31 160 152 203 181 139 12 43 137 47 108 268 436 479 412 392 325 319 195 158 93 179 94 68 81 65 67 27 3 0 9 20 20 12 32 4 0 0 0 0 0 2 12 18 15 16 24
19 9 36 51 105 99 102 34 16 80 123 60 130 316 345 462 337 174 125 78 48 11 0 6 3 0 0 0 0 0 0 0 4 3 1 0 0 0 0 0 0 0 0 3 8 4 16 21 25
CIN
-0 -0 -0 -0 -0 -0 -0 -0 -0 -0 -8 -1 -0 -0 -0 -0 -13 -16 -24 -37 -215 -279 -345 -312 -163 -103 -83 -101 -77 -73 -101 -130 -96 -64 -43 -23 -2 -0 -0 -0 -0 -0 -9 -52 -97 -115 -100 -85 -58
-0 -0 -0 -0 -0 -0 -0 -0 -0 -0 -17 -0 -0 -0 -0 -5 -15 -54 -98 -74 -253 -274 -346 -316 -154 -106 -77 -100 -92 -89 -104 -114 -89 -64 -38 -14 -0 -0 -0 -0 -0 -0 -43 -118 -118 -116 -106 -101 -84
-0 -0 -0 -0 -0 -0 -0 -0 -0 -2 -18 -0 -0 -0 -0 -4 -12 -8 -85 -103 -231 -272 -262 -231 -147 -117 -93 -95 -107 -107 -97 -100 -75 -54 -35 -12 -0 -0 -0 -0 -0 -11 -88 -158 -125 -89 -89 -87 -80
-0 -0 -0 -0 -0 -0 -0 -0 -0 -13 -10 -0 -0 -0 -0 -20 -13 -29 -88 -102 -246 -257 -227 -254 -185 -138 -104 -103 -113 -113 -98 -78 -70 -47 -29 -10 -1 -0 -0 -0 -0 -33 -88 -150 -120 -102 -99 -83 -79
-0 -0 -0 -0 -0 -0 -0 -0 -0 -1 -1 -0 -0 -0 -0 -23 -32 -68 -93 -103 -210 -266 -198 -274 -195 -163 -123 -98 -94 -96 -93 -86 -71 -48 -24 -4 -0 -0 -0 -0 -17 -60 -90 -100 -104 -98 -102 -135 -155
-0 -0 -0 -0 -0 -0 -0 -0 -0 -0 -0 -0 -0 -0 -3 -17 -33 -63 -64 -87 -154 -203 -205 -312 -192 -174 -160 -132 -110 -106 -105 -95 -79 -48 -27 -9 -6 -1 -0 -2 -22 -58 -97 -89 -77 -84 -104 -132 -162
-0 -0 -0 -0 -0 -0 -0 -0 -0 -0 -0 -0 -0 -0 -7 -9 -10 -49 -49 -70 -126 -147 -234 -337 -283 -173 -148 -152 -135 -125 -120 -105 -76 -68 -54 -35 -28 -20 -7 -1 -7 -42 -93 -103 -89 -87 -107 -136 -164
-0 -0 -0 -0 -0 -0 -0 -0 -0 -0 -0 -0 -0 -0 -3 -67 -352 -414 -271 -18 -61 -122 -269 -340 -296 -240 -179 -140 -94 -100 -92 -89 -89 -68 -46 -47 -33 -20 -7 -15 -12 -34 -73 -110 -109 -101 -116 -136 -150
-0 -0 -0 -0 -0 -0 -0 -0 -0 -0 -0 -0 -0 -0 -0 -112 -494 -308 -61 -231 -14 -40 -207 -315 -323 -255 -266 -232 -128 -85 -71 -62 -69 -46 -40 -75 -178 -115 -104 -141 -54 -33 -68 -106 -126 -144 -161 -174 -194
-0 -0 -0 -0 -0 -0 -0 -0 -0 -0 -0 -0 -0 -0 -0 -8 -0 -0 -0 -89 -9 -19 -100 -261 -305 -290 -292 -281 -113 -95 -83 -75 -91 -127 -83 -181 -260 -202 -236 -177 -49 -41 -55 -82 -115 -142 -163 -215 -0
-0 -0 -0 -0 -0 -0 -0 -0 -0 -0 -0 -0 -0 -0 -0 -0 -2 -165 -207 -6 -4 -10 -8 -58 -171 -182 -249 -253 -206 -218 -215 -236 -216 -210 -125 -191 -263 -93 -209 -82 -173 -115 -69 -134 -133 -170 -259 -383 -431
-0 -0 -0 -0 -0 -0 -0 -0 -0 -0 -0 -0 -0 -0 -0 -0 -2 -6 -4 -6 -116 -125 -33 -58 -124 -97 -115 -173 -250 -234 -232 -212 -199 -139 -56 -192 -45 -30 -170 -109 -139 -132 -128 -171 -149 -156 -160 -214 -224
-0 -0 -0 -0 -0 -0 -0 -0 -0 -0 -0 -0 -0 -0 -0 -0 -0 -0 -16 -81 -364 -384 -310 -0 -69 -61 -62 -128 -111 -216 -178 -166 -98 -58 -12 -35 -35 -25 -23 -28 -84 -75 -84 -97 -73 -72 -42 -56 -80
-0 -0 -0 -0 -0 -0 -0 -0 -0 -0 -0 -0 -0 -0 -0 -0 -0 -0 -0 -27 -277 -423 -190 -0 -0 -108 -56 -50 -60 -58 -43 -49 -25 -21 -20 -9 -14 -29 -20 -20 -13 -20 -28 -35 -46 -57 -37 -46 -39
-0 -0 -0 -0 -0 -0 -0 -0 -0 -0 -0 -0 -0 -0 -0 -0 -0 -0 -0 -46 -150 -219 -451 -0 -25 -208 -126 -67 -47 -36 -36 -27 -45 -44 -43 -40 -25 -21 -13 -16 -31 -30 -41 -20 -21 -25 -28 -39 -35
-0 -0 -0 -0 -0 -0 -0 -0 -0 -0 -0 -0 -0 -0 -0 -0 -0 -0 -0 -47 -162 -129 -0 -0 -0 -0 -177 -56 -58 -55 -189 -154 -349 -289 -107 -16 -24 -13 -12 -12 -11 -52 -83 -97 -81 -68 -66 -45 -78
-0 -0 -0 -0 -0 -0 -0 -0 -0 -0 -0 -0 -0 -0 -0 -0 -0 -0 -0 -29 -90 -121 -124 -237 -0 -0 -0 -141 -99 -25 -79 -221 -423 -357 -0 -253 -26 -78 -47 -27 -60 -23 -45 -34 -52 -54 -28 -25 -25
-0 -0 -0 -0 -0 -0 -0 -0 -0 -0 -0 -0 -0 -0 -0 -0 -0 -0 -0 -67 -131 -53 -82 -217 -248 -164 -124 -0 -0 -1 -87 -98 -338 -0 -160 -76 -11 -35 -0 -54 -59 -15 -27 -24 -22 -14 -9 -18 -23
-0 -0 -0 -0 -0 -0 -0 -0 -0 -0 -0 -0 -0 -0 -0 -0 -0 -0 -18 -53 -57 -57 -41 -19 -17 -12 -78 -38 -35 -21 -43 -19 -79 -0 -0 -61 -2 -21 -109 -0 -390 -24 -28 -29 -24 -23 -65 -84 -117
-0 -0 -0 -0 -0 -0 -0 -0 -0 -0 -0 -0 -0 -0 -0 -0 -0 -0 -22 -40 -51 -41 -15 -25 -14 -16 -4 -21 -20 -35 -30 -27 -45 -25 -11 -6 -18 -13 -20 -11 -14 -19 -67 -53 -55 -34 -49 -104 -115
-0 -0 -0 -0 -0 -0 -0 -0 -0 -0 -0 -0 -0 -0 -0 -0 -0 -0 -60 -73 -45 -55 -45 -35 -11 -12 -6 -17 -66 -39 -21 -37 -20 -13 -12 -11 -5 -3 -62 -50 -80 -121 -130 -104 -33 -16 -28 -64 -109
-0 -0 -0 -1 -0 -1 -3 -0 -2 -0 -0 -0 -0 -0 -0 -0 -0 -0 -16 -53 -64 -57 -77 -51 -66 -18 -36 -33 -17 -50 -47 -31 -39 -88 -18 -81 -117 -119 -131 -165 -156 -119 -63 -48 -57 -71 -26 -42 -123
-0 -0 -0 -1 -0 -1 -0 -0 -3 -3 -4 -0 -0 -0 -0 -2 -0 -3 -26 -52 -49 -53 -35 -55 -59 -42 -24 -30 -8 -70 -21 -20 -87 -97 -112 -57 -84 -123 -132 -141 -95 -82 -65 -56 -60 -81 -68 -51 -47
-0 -3 -1 -1 -1 -0 -0 -0 -3 -7 -3 -0 -0 -0 -0 -2 -0 -5 -23 -37 -33 -22 -11 -26 -47 -80 -143 -166 -54 -103 -151 -96 -80 -64 -95 -88 -46 -43 -63 -110 -68 -78 -58 -71 -65 -51 -47 -28 -44
-0 -0 -0 -0 -0 -0 -1 -0 -7 -45 -30 -4 -1 -0 -0 -5 -26 -11 -39 -28 -54 -49 -7 -72 -137 -120 -148 -218 -203 -246 -309 -267 -163 -214 -143 -192 -189 -117 -36 -154 -143 -165 -124 -128 -154 -179 -149 -118 -59
-0 -0 -0 -0 -0 -0 -0 -0 -0 -18 -13 -10 -0 -2 -4 -13 -11 -33 -30 -30 -31 -36 -74 -113 -167 -216 -314 -340 -263 -259 -238 -308 -217 -356 -388 -367 -338 -272 -191 -208 -230 -202 -214 -206 -27 -0 -0 -0 -0
-2 -0 -1 -1 -5 -14 -2 -2 -25 -5 -27 -1 -37 -32 -13 -23 -12 -37 -76 -34 -9 -48 -91 -131 -201 -205 -261 -278 -233 -261 -389 -286 -309 -305 -336 -281 -193 -342 -281 -0 -186 -0 -0 -0 -0 -0 -0 -3 -8
-1 -1 -0 -2 -0 -1 -1 -0 -19 -10 -3 -8 -3 -32 -24 -3 -8 -42 -74 -50 -82 -91 -108 -171 -188 -217 -242 -266 -268 -307 -350 -375 -384 -338 -303 -325 -270 -286 -208 -0 -0 -0 -0 -0 -0 -1 -5 -7 -7
-0 -0 -1 -0 -0 -2 -1 -5 -211 -42 -63 -168 -2 -1 -2 -3 -4 -12 -56 -98 -154 -187 -239 -187 -237 -247 -260 -291 -329 -340 -384 -0 -284 -345 -330 -314 -260 -160 -0 -0 -0 -0 -0 -5 -9 -7 -5 -6 -10
-0 -0 -2 -10 -7 -0 -22 -63 -301 -134 -17 -154 -31 -0 -2 -5 -3 -10 -76 -126 -148 -192 -14 -8 -10 -6 -0 -0 -0 -0 -0 -0 -288 -287 -15 -0 -0 -0 -0 -0 -0 -0 -0 -8 -8 -8 -5 -5 -6
Wind_Speed
12 13 10 11 9 8 17 19 21 20 6 3 11 6 13 14 10 13 12 16 23 21 16 16 17 19 19 18 17 15 15 15 14 14 13 13 11 10 10 10 10 11 11 11 11 10 10 9 8
11 14 11 8 12 14 15 21 22 16 12 7 4 4 10 8 19 14 10 21 23 19 14 15 16 18 18 18 18 16 16 15 15 14 14 12 11 10 9 9 9 10 11 11 10 10 9 8 6
11 14 10 8 15 17 17 22 17 9 10 3 2 6 8 15 11 10 13 24 21 18 15 15 17 18 19 18 18 18 16 16 15 15 15 14 12 11 10 9 9 9 10 10 10 9 8 7 5
6 5 7 14 21 22 25 25 24 9 2 6 5 2 9 7 6 12 15 23 19 18 17 18 19 18 18 18 18 19 18 16 16 15 14 14 14 13 12 10 9 8 9 9 9 8 7 6 4
10 8 11 16 24 26 23 24 22 7 11 3 6 3 7 10 12 17 16 19 19 18 17 17 18 18 19 19 18 18 18 17 16 15 15 14 13 12 11 11 9 9 8 9 9 8 6 5 4
10 11 15 18 23 24 24 26 24 6 6 12 7 7 7 13 12 15 17 18 19 19 16 16 17 19 20 20 19 19 19 17 17 15 15 14 13 12 11 10 10 8 8 7 7 7 6 5 4
18 14 18 23 23 22 23 21 20 18 15 16 9 16 8 14 17 15 17 18 20 22 18 16 15 15 18 19 19 18 18 18 16 15 15 14 13 12 10 9 9 9 8 8 8 7 7 6 6
14 15 25 22 19 25 22 19 22 26 12 12 17 9 6 5 17 20 22 14 16 19 20 17 14 14 13 13 16 17 16 17 17 16 15 15 14 13 12 10 9 9 9 8 8 8 7 7 7
19 16 17 25 24 19 19 21 14 7 8 16 17 17 5 19 21 17 10 24 14 15 19 17 16 14 14 15 14 15 17 16 16 15 14 12 8 10 13 12 14 11 10 9 9 8 8 8 9
20 17 26 22 21 22 20 21 23 6 8 18 16 11 11 7 23 23 20 26 18 18 20 19 17 16 15 13 12 10 10 9 9 10 11 8 9 11 12 14 16 14 12 10 10 10 10 9 6
23 23 20 22 25 23 16 18 13 9 13 14 11 15 16 15 12 25 32 20 13 18 16 20 16 14 15 14 11 7 7 7 7 11 10 9 8 9 8 6 7 7 10 6 9 8 7 9 8
25 25 22 24 24 13 14 13 15 14 12 16 13 14 13 4 7 13 14 12 11 7 16 21 23 17 14 13 12 11 9 8 8 9 12 8 5 5 7 6 10 9 7 9 7 7 10 11 9
25 22 23 21 20 22 11 17 16 19 17 16 16 18 16 9 8 12 10 9 13 13 9 14 12 14 10 14 11 11 11 11 11 10 12 9 7 5 5 4 6 9 7 10 8 7 6 9 7
22 23 21 23 21 19 20 18 18 19 18 17 16 17 18 16 12 12 12 3 9 10 3 2 17 21 6 4 5 6 5 9 8 10 12 12 8 5 7 5 4 3 3 4 6 4 4 5 5
22 18 22 20 21 23 16 23 25 20 19 20 20 16 18 18 13 11 11 4 12 8 10 12 16 23 20 7 5 1 3 5 5 5 13 11 6 3 3 5 5 4 4 4 0 2 2 4 4
20 21 21 19 20 22 20 22 20 21 21 22 21 17 18 17 17 13 15 11 12 12 13 11 8 16 11 10 5 3 5 5 5 9 9 11 6 4 5 3 3 3 4 4 4 3 4 4 3
17 18 23 23 24 23 25 22 18 18 15 16 17 18 17 17 18 16 16 11 9 15 14 16 16 16 6 11 12 8 3 4 5 4 7 16 2 2 8 5 5 3 2 1 2 1 3 4 4
20 21 21 21 22 20 20 19 15 14 13 13 12 14 15 16 16 16 15 13 14 7 22 18 15 15 14 10 10 10 4 3 5 4 1 6 9 11 8 5 12 10 7 2 4 3 2 3 5
23 22 22 19 21 20 17 14 17 18 17 18 14 12 13 15 15 17 11 14 17 12 8 9 15 18 14 9 8 7 7 6 9 7 12 3 11 13 13 7 14 13 5 1 4 3 3 3 5
24 25 23 18 22 11 13 14 16 17 17 15 11 11 13 14 15 17 15 13 14 12 10 8 10 6 7 5 4 3 6 3 7 8 8 9 11 9 7 4 4 4 2 5 4 2 1 1 3
23 24 19 14 7 9 9 13 18 17 16 11 9 7 10 12 15 15 17 15 9 12 14 10 11 8 4 5 7 4 5 4 3 4 4 2 2 5 6 5 2 5 3 2 2 1 3 2 2
23 22 19 12 12 13 18 15 20 21 18 13 11 8 11 15 16 15 15 17 14 15 14 10 8 12 9 6 6 8 3 5 3 4 4 4 7 3 5 6 3 3 2 2 1 2 2 1 4
19 19 18 16 13 12 16 10 15 10 14 15 12 12 11 13 17 18 19 18 15 11 10 6 8 5 7 6 4 7 5 5 3 4 7 6 2 4 2 4 4 3 2 4 5 5 4 3 3
16 17 19 16 14 15 18 16 15 4 16 16 18 15 13 10 12 12 13 16 12 7 6 5 10 9 9 11 8 9 10 8 6 5 3 2 1 3 3 2 3 2 3 3 3 4 5 5 6
20 17 9 12 12 13 16 18 13 12 5 7 16 16 14 10 12 9 20 13 11 7 10 10 10 10 9 12 9 8 10 9 7 4 5 4 3 3 5 6 6 5 5 5 5 5 6 7 8
23 17 12 17 15 15 20 19 11 14 12 5 4 12 14 12 14 11 10 13 15 13 9 9 7 9 10 10 8 7 7 5 4 7 5 4 4 5 7 6 5 5 5 5 5 5 6 8 8
20 22 20 17 8 5 7 5 7 2 12 8 10 9 13 11 14 15 11 11 16 13 11 10 10 8 9 9 6 5 6 6 5 5 4 3 3 4 5 5 5 5 6 6 6 7 8 8 8
23 20 19 14 16 11 12 14 7 7 14 13 14 12 13 15 19 16 12 13 13 10 10 11 8 7 6 5 4 5 4 3 3 2 3 3 4 5 5 5 6 6 6 7 7 8 8 8 7
16 16 13 9 12 6 6 5 6 3 10 15 17 14 13 16 18 17 16 14 13 11 10 7 7 7 5 5 5 4 4 4 4 3 4 4 5 5 6 7 8 8 8 8 8 8 10 11 11
22 20 18 7 14 12 6 3 10 12 4 11 15 15 16 18 16 16 16 13 13 13 11 7 5 4 5 4 4 3 2 2 3 4 5 5 6 6 7 7 9 9 10 8 9 11 11 12 12
Wind_Direction
280 261 253 259 257 229 253 254 247 268 242 28 67 358 333 311 55 110 101 105 117 129 135 137 133 133 137 140 138 137 136 135 135 129 125 122 122 124 120 115 113 111 109 107 107 105 103 99 99
275 248 248 271 250 250 246 242 259 271 97 68 352 276 244 75 99 123 106 119 124 131 145 139 135 135 138 141 140 140 141 142 140 135 130 128 129 132 125 121 124 120 117 113 111 110 108 110 109
255 261 254 235 237 245 257 257 237 277 78 92 228 260 330 88 55 99 125 122 133 137 156 136 139 140 141 143 143 143 144 147 145 141 139 139 138 138 136 133 131 126 122 121 119 115 117 121 118
224 232 240 249 245 234 246 269 289 261 136 259 244 294 229 97 115 109 149 130 133 144 151 145 143 142 142 146 148 147 147 151 148 146 146 146 148 149 149 147 139 133 130 130 128 125 129 134 139
227 241 228 234 238 252 253 246 261 275 248 293 229 239 287 102 114 126 151 134 144 157 129 148 143 143 144 147 151 150 150 152 151 150 150 152 154 155 153 148 146 146 145 144 143 143 150 155 166
212 231 243 233 244 240 247 267 280 221 279 276 277 252 250 125 134 141 154 145 151 145 144 150 148 148 149 149 153 153 151 153 151 152 154 155 156 158 157 156 155 153 150 152 154 157 170 178 186
237 223 233 248 255 244 239 236 254 260 242 251 251 267 132 163 142 154 157 158 155 142 149 158 160 154 150 150 151 152 153 150 151 153 153 155 158 158 160 160 161 159 160 165 171 179 189 200 209
230 251 249 237 249 256 264 245 218 236 219 248 265 272 247 78 66 20 351 161 161 149 148 162 160 163 159 156 152 150 150 150 152 155 157 159 160 163 166 168 175 172 172 175 184 195 204 214 226
226 242 244 246 248 248 262 274 259 136 219 245 242 229 210 111 102 104 348 279 166 162 148 164 167 173 175 162 158 150 153 155 157 156 160 158 178 176 176 192 176 182 182 188 195 203 214 224 234
226 228 239 249 255 260 265 262 267 205 216 244 250 254 218 136 129 150 210 237 175 168 159 164 163 173 182 163 150 160 161 167 173 173 170 188 202 175 189 187 172 180 188 197 204 209 214 216 236
225 239 242 242 260 271 279 298 305 267 238 247 234 249 249 226 221 174 199 204 190 174 169 162 157 173 186 153 158 167 166 173 187 182 172 209 204 186 196 155 169 176 194 202 205 209 221 220 220
232 230 243 262 274 269 279 286 291 290 262 259 273 258 241 179 245 230 249 231 28 327 167 163 160 172 194 140 161 169 167 176 181 186 175 199 221 187 175 164 183 187 185 201 216 203 210 219 222
233 238 237 246 260 271 251 257 257 260 265 271 276 277 273 189 236 286 292 58 73 39 75 0 317 172 186 154 165 176 174 175 185 182 180 197 211 184 192 204 201 181 188 191 208 200 203 197 201
241 236 242 243 250 241 258 251 247 247 258 259 255 259 268 280 217 251 279 173 102 101 87 95 312 289 68 346 143 183 173 175 187 178 182 201 204 179 189 188 222 214 235 205 188 199 207 214 226
262 255 244 244 243 256 239 249 243 247 250 238 242 242 259 273 269 248 274 34 145 154 163 132 185 351 334 314 329 198 202 154 175 177 170 185 220 230 195 182 195 214 213 234 16 46 315 291 319
243 244 251 227 237 237 235 248 246 236 234 238 242 232 231 251 261 260 266 109 161 163 152 154 136 152 213 256 295 297 20 41 30 28 8 178 180 219 229 235 231 97 102 80 66 25 340 303 149
223 236 233 248 241 219 217 241 245 251 255 230 222 233 228 224 234 237 256 118 98 165 151 145 163 174 215 46 348 302 331 46 47 357 60 330 319 66 2 302 317 66 62 165 124 253 240 299 305
215 225 241 237 233 226 217 220 240 260 250 233 231 230 229 223 234 234 235 128 116 106 154 167 179 192 138 148 128 271 298 120 101 65 261 200 260 101 89 357 345 333 342 229 270 194 13 308 293
244 230 220 238 263 188 208 249 234 226 223 243 218 210 233 221 222 233 197 146 131 144 135 138 138 161 166 175 177 187 193 206 153 167 172 200 276 150 170 185 173 216 236 141 127 83 54 337 348
235 252 248 217 216 219 206 230 250 240 243 235 231 207 215 213 227 230 183 144 138 142 130 132 126 145 142 165 148 164 237 206 192 174 159 162 166 171 201 203 217 115 87 59 48 110 90 318 287
229 241 248 259 175 246 238 253 252 253 247 222 215 228 227 208 214 227 168 158 165 124 128 129 129 142 156 119 101 106 62 12 8 99 153 114 118 156 110 100 66 69 46 4 23 337 182 239 257
225 226 245 230 242 234 209 241 235 220 221 199 194 204 211 213 199 214 184 166 159 145 160 136 140 147 151 159 136 107 152 211 129 156 137 106 84 44 70 65 28 48 25 19 354 306 293 284 273
231 213 229 244 249 253 261 267 279 161 198 181 184 188 215 194 185 193 211 152 159 148 182 172 115 92 121 125 67 133 187 129 161 82 85 100 117 98 105 83 32 36 357 358 0 337 328 299 290
211 237 209 217 227 230 236 253 260 272 194 192 177 189 199 199 185 188 144 145 154 138 147 71 109 86 84 67 78 80 63 59 72 53 104 136 205 154 180 163 161 72 15 339 311 311 308 284 276
215 216 201 214 224 236 226 236 252 135 251 320 165 170 189 139 67 105 120 125 118 141 101 94 98 99 78 80 70 63 80 58 82 32 41 36 18 10 58 43 29 5 345 336 331 318 298 292 286
206 204 224 203 212 222 223 229 247 181 174 114 135 161 157 124 124 108 107 128 127 106 108 106 97 103 92 83 74 59 40 80 73 62 44 9 356 341 11 6 352 333 324 315 316 297 290 290 286
198 213 226 260 287 305 272 217 82 233 123 152 143 137 121 135 113 110 114 116 119 130 133 134 121 107 97 92 95 65 63 50 41 42 31 314 337 339 356 344 301 300 303 296 294 291 287 279 283
224 201 215 232 236 221 237 221 159 216 164 177 150 154 150 131 122 120 126 107 105 110 104 102 109 97 106 111 97 80 66 81 64 12 315 321 305 289 295 294 292 300 290 281 278 275 273 280 289
221 232 216 243 232 178 237 273 321 183 341 330 162 153 134 132 126 122 110 106 109 105 103 105 129 149 124 95 86 78 33 6 350 334 304 287 290 307 305 299 294 290 290 278 273 276 280 274 273
219 217 201 220 255 231 180 167 312 291 230 1 358 148 140 126 124 125 121 135 138 140 138 99 70 101 108 90 71 41 13 318 308 315 302 301 291 284 282 288 285 290 290 287 281 280 273 271 273